This is the latest recevied weather packets stored in our database for station/object KC1IUC-15. If no packets are shown the sender has not sent any weather packets the latest 10 day(s).
| Time | Temp. | Humidity | Pressure | Rain* | Wind** | Luminosity | Snow |
|---|---|---|---|---|---|---|---|
| 1777334103 | 15.56° C | 44% | 1023.2 hPa | 0 mm | - | 0 W/m² | - |
| 1777333803 | 15.56° C | 44% | 1023.6 hPa | 0 mm | - | 1 W/m² | - |
| 1777333503 | 15.56° C | 44% | 1023.2 hPa | 0 mm | - | 2 W/m² | - |
| 1777333203 | 16.11° C | 43% | 1022.9 hPa | 0 mm | - | 3 W/m² | - |
| 1777332903 | 16.11° C | 42% | 1022.9 hPa | 0 mm | - | 5 W/m² | - |
| 1777332603 | 16.11° C | 42% | 1022.9 hPa | 0 mm | - | 7 W/m² | - |
| 1777332303 | 16.67° C | 41% | 1022.9 hPa | 0 mm | - | 10 W/m² | - |
| 1777332003 | 16.67° C | 40% | 1022.9 hPa | 0 mm | - | 13 W/m² | - |
| 1777331703 | 16.67° C | 39% | 1022.9 hPa | 0 mm | - | 15 W/m² | - |
| 1777331403 | 17.22° C | 38% | 1022.9 hPa | 0 mm | - | 17 W/m² | - |
| 1777331103 | 17.22° C | 37% | 1022.9 hPa | 0 mm | - | 19 W/m² | - |
| 1777330803 | 17.22° C | 38% | 1022.9 hPa | 0 mm | - | 21 W/m² | - |
| 1777330503 | 17.78° C | 38% | 1022.9 hPa | 0 mm | - | 22 W/m² | - |
| 1777330203 | 17.78° C | 39% | 1022.9 hPa | 0 mm | - | 25 W/m² | - |
| 1777329903 | 17.78° C | 38% | 1022.5 hPa | 0 mm | - | 28 W/m² | - |
| 1777329603 | 18.33° C | 39% | 1022.9 hPa | 0 mm | - | 30 W/m² | - |
| 1777329303 | 18.33° C | 38% | 1022.5 hPa | 0 mm | - | 31 W/m² | - |
| 1777329003 | 18.89° C | 37% | 1022.5 hPa | 0 mm | - | 31 W/m² | - |
| 1777328703 | 18.89° C | 37% | 1022.5 hPa | 0 mm | - | 36 W/m² | - |
| 1777328403 | 19.44° C | 37% | 1022.5 hPa | 0 mm | - | 83 W/m² | - |
| 1777328103 | 19.44° C | 37% | 1022.5 hPa | 0 mm | - | 66 W/m² | - |
| 1777327803 | 19.44° C | 38% | 1022.5 hPa | 0 mm | - | 37 W/m² | - |
| 1777327503 | 19.44° C | 37% | 1022.5 hPa | 0 mm | - | 75 W/m² | - |
| 1777327203 | 19.44° C | 37% | 1022.5 hPa | 0 mm | - | 150 W/m² | - |
| 1777326903 | 20° C | 36% | 1022.5 hPa | 0 mm | - | 51 W/m² | - |
* Rain latest hour (hover to see other rain measurements)
** Current wind speed in m/s (hover to see current wind gust speed)